Location: Ocean City
(38.3360°N, 75.0850°W)
Time: 19:20:19
(UTC-04:00)

MOZHAYETS 4 - Pass Details

Date: 21 May 2019
Orbit: 661 x 681 km, 98.0° (Epoch: 17 June)

Event Time Altitude Azimuth Distance (km) Brightness Sun altitude
Exits shadow 02:24:56 26° 99° (E) 1,329 9.3 -28.0°
Maximum altitude 02:26:12 30° 70° (ENE) 1,209 9.3 -27.9°
Drops below altitude 10° 02:30:13 10° 10° (N) 2,113 11.2 -27.6°
Sets 02:32:39 0° 359° (N) 3,028 12.1 -27.4°
